Regional Weather Roundup
Issued by NWS

Home | Current Version | Previous Version | Text Only | Print | Product List | Glossary On
Versions: 1 2 3 4 5 6 7 8 9 10 11 12 13 14 15 16 17 18 19 20 21 22 23 24 25 26 27 28 29 30 31 32 33 34 35 36 37 38 39 40 41 42 43 44 45 46 47 48 49 50
000
ASUS43 KLSX 281959
RWRMO

WEATHER SUMMARY FOR MISSOURI
NATIONAL WEATHER SERVICE SPRINGFIELD MO
300 PM CDT THU MAY 28 2015

NOTE: "FAIR" INDICATES FEW OR NO CLOUDS BELOW 12,000 FEET WITH NO
       SIGNIFICANT WEATHER AND/OR OBSTRUCTIONS TO VISIBILITY.
       CURRENT SKY AND/OR WEATHER CONDITIONS ARE NOT AVAILABLE FOR
       CHILLICOTHE AND FARMINGTON.

MOZ001>031-035>038-043-044-053-054-282100-
...NORTHERN AND WESTERN MISSOURI...

CITY           SKY/WX    TMP DP  RH WIND       PRES   REMARKS
KANSAS CTY INT CLOUDY    69  65  86 S12       30.05F
KANSAS C DTWN  LGT RAIN  72  65  78 S8        30.04F
LEE`S SUMMIT   CLOUDY    69  66  90 SW8       30.08F
ST JOSEPH      CLOUDY    72  65  78 S7        30.05F
CHILLICOTHE      N/A     77  68  73 S7        30.05F
KIRKSVILLE     PTSUNNY   78  65  63 SE14      30.06F

$$
MOZ066>068-077>081-088>096-101>105-282100-
...SOUTHWEST MISSOURI...

CITY           SKY/WX    TMP DP  RH WIND       PRES   REMARKS
SPRINGFIELD    CLOUDY    77  68  73 S14       30.06F
JOPLIN         CLOUDY    72  66  81 SW3       30.05F

$$
MOZ032>034-039>042-045>050-055>058-069>072-282100-
...CENTRAL MISSOURI...

CITY           SKY/WX    TMP DP  RH WIND       PRES   REMARKS
COLUMBIA       CLOUDY    75  69  81 S5        30.07F
JEFFERSON CITY CLOUDY    76  63  64 CALM      30.06F
ROLLA          PTSUNNY   81  68  64 S15       30.07F
SEDALIA        LGT RAIN  71  63  75 SE18G26   30.05F
WHITEMAN AFB   TSTM      79  66  65 SW12      30.04F
OSAGE BEACH    CLOUDY    81  68  65 SW10      30.06F

$$
MOZ051-052-059>065-282100-
...EAST CENTRAL MISSOURI...

CITY           SKY/WX    TMP DP  RH WIND       PRES   REMARKS
ST LOUIS INTL  PTSUNNY   83  62  49 S9        30.10F
SPIRIT OF STL  TSTM      68  65  90 E7        30.10R
ST CHARLES     PTSUNNY   83  66  56 S16       30.08F

$$
MOZ072>076-082>087-097>100-106>115-282100-
...SOUTH CENTRAL AND SOUTHEAST MISSOURI...

CITY           SKY/WX    TMP DP  RH WIND       PRES   REMARKS
CAPE GIRARDEAU MOSUNNY   81  68  64 SE9       30.11F
FARMINGTON     PTSUNNY   81  66  61 S14       30.15F
POPLAR BLUFF   CLOUDY    79  67  66 SE9       30.11F
WEST PLAINS    PTSUNNY   77  66  68 SE9       30.12F

$$



USA.gov is the U.S. government's official web portal to all federal, state and local government web resources and services.